Deer Park, WA
on Monday, November 5, 2012

Monday
Previous Day Next Day
Daily Summary
 ActualAverageRecord
Temperature
Mean Temperature °F 37°F  
Max Temperature 58°F 47°F 58°F (2012)
Min Temperature 33°F 28°F 3°F (2003)
Degree Days
Heating Degree Days 19 28  
Month to date heating degree days 88 135  
Since 1 July heating degree days 1000 1203  
Cooling Degree Days 0 0  
Month to date cooling degree days 0 0  
Year to date cooling degree days 232 187  
Moisture
Dew Point 47°F   
Average Humidity 89    
Maximum Humidity 100    
Minimum Humidity 77    
Precipitation
Precipitation 0.00 in 0.11 in 0.30 in (2005)
Month to date precipitation 0.15 0.51  
Year to date precipitation 20.15 16.57  
Wind
Wind Speed 4 mph   
Max Wind Speed 13 mph   
Max Gust Speed 17 mph   
Visibility 7 miles   
Events Fog   

Key: T is trace of precipitation, MM is missing value
Source: NWS Daily Summary
Time(PST)TemperatureDew PointHumidity Pressure Visibility Wind DirectionWind SpeedGust SpeedPrecipitationEvents Conditions
12:30 AM 53.6°F 48.2°F 82% 30.25 in 10.0 miles South 5.8 mph - N/A   Overcast
12:53 AM 53.1°F 48.9°F 86% 30.25 in 10.0 miles South 5.8 mph - N/A   Overcast
1:14 AM 51.8°F 48.2°F 88% 30.23 in 10.0 miles SSE 5.8 mph - N/A   Overcast
1:53 AM 51.1°F 48.9°F 92% 30.23 in 10.0 miles SSW 4.6 mph - N/A   Mostly Cloudy
2:27 AM 51.8°F 48.2°F 88% 30.20 in 10.0 miles South 8.1 mph - N/A   Scattered Clouds
2:53 AM 53.1°F 50.0°F 89% 30.20 in 10.0 miles South 9.2 mph - N/A   Scattered Clouds
3:00 AM 51.8°F 50.0°F 94% 30.19 in 10.0 miles South 9.2 mph - N/A   Mostly Cloudy
3:53 AM 53.1°F 50.0°F 89% 30.18 in 10.0 miles South 8.1 mph - N/A   Scattered Clouds
4:01 AM 53.6°F 50.0°F 88% 30.18 in 10.0 miles South 4.6 mph - N/A   Mostly Cloudy
4:27 AM 53.6°F 50.0°F 88% 30.17 in 10.0 miles SSW 9.2 mph - N/A   Overcast
4:53 AM 54.0°F 50.0°F 86% 30.18 in 10.0 miles SSW 8.1 mph - N/A   Overcast
5:53 AM 53.1°F 50.0°F 89% 30.20 in 10.0 miles Calm Calm - N/A   Overcast
6:05 AM 53.6°F 50.0°F 88% 30.19 in 10.0 miles Calm Calm - N/A   Overcast
6:38 AM 53.6°F 50.0°F 88% 30.21 in 10.0 miles SW 6.9 mph - N/A   Overcast
6:53 AM 53.1°F 50.0°F 89% 30.22 in 10.0 miles SSW 5.8 mph - N/A   Overcast
7:31 AM 53.6°F 51.8°F 94% 30.22 in 10.0 miles South 6.9 mph - N/A   Overcast
7:53 AM 53.1°F 51.1°F 93% 30.24 in 10.0 miles SSE 5.8 mph - N/A   Overcast
8:53 AM 54.0°F 51.1°F 90% 30.25 in 10.0 miles SW 8.1 mph - N/A   Overcast
9:53 AM 54.0°F 51.1°F 90% 30.26 in 10.0 miles South 5.8 mph - N/A   Overcast
10:53 AM 55.0°F 51.1°F 86% 30.27 in 10.0 miles South 3.5 mph - N/A   Overcast
11:33 AM 55.4°F 51.8°F 88% 30.26 in 10.0 miles Calm Calm - N/A   Overcast
11:53 AM 55.9°F 52.0°F 87% 30.26 in 10.0 miles SSW 4.6 mph - N/A   Mostly Cloudy
12:02 PM 57.2°F 51.8°F 82% 30.25 in 10.0 miles South 3.5 mph - N/A   Scattered Clouds
12:09 PM 55.4°F 51.8°F 88% 30.26 in 10.0 miles South 3.5 mph - N/A   Mostly Cloudy
12:16 PM 57.2°F 51.8°F 82% 30.26 in 10.0 miles SSW 5.8 mph - N/A   Scattered Clouds
12:53 PM 57.0°F 51.1°F 81% 30.26 in 10.0 miles SW 5.8 mph - N/A   Scattered Clouds
1:21 PM 57.2°F 51.8°F 82% 30.25 in 10.0 miles SSW 4.6 mph - N/A   Mostly Cloudy
1:53 PM 57.9°F 51.1°F 78% 30.25 in 10.0 miles SW 8.1 mph - N/A   Mostly Cloudy
2:20 PM 57.2°F 50.0°F 77% 30.25 in 10.0 miles SW 4.6 mph - N/A   Partly Cloudy
2:53 PM 57.0°F 50.0°F 77% 30.25 in 10.0 miles SSW 4.6 mph - N/A   Partly Cloudy
3:50 PM 53.6°F 48.2°F 82% 30.26 in 10.0 miles West 3.5 mph - N/A   Mostly Cloudy
3:53 PM 53.1°F 48.9°F 86% 30.27 in 10.0 miles WSW 3.5 mph - N/A   Mostly Cloudy
4:01 PM 53.6°F 48.2°F 82% 30.25 in 10.0 miles Calm Calm - N/A   Scattered Clouds
4:53 PM 46.9°F 46.9°F 100% 30.25 in 3.0 miles Calm Calm - N/A   Clear
5:16 PM 46.4°F 44.6°F 93% 30.23 in 2.0 miles Calm Calm - N/A   Clear
5:25 PM 46.4°F 46.4°F 100% 30.23 in 9.0 miles Calm Calm - N/A   Clear
5:39 PM 44.6°F 44.6°F 100% 30.23 in 1.5 miles Calm Calm - N/A   Clear
5:48 PM 42.8°F 42.8°F 100% 30.23 in 0.5 miles Calm Calm - N/A Fog Fog
5:53 PM 43.0°F 43.0°F 100% 30.26 in 0.5 miles Calm Calm - N/A Fog Fog
6:03 PM 44.6°F 42.8°F 93% 30.24 in 0.5 miles Calm Calm - N/A Fog Fog
6:50 PM 42.8°F 42.8°F 100% 30.23 in 1.5 miles Calm Calm - N/A   Partly Cloudy
6:53 PM 43.0°F 42.1°F 97% 30.25 in 2.0 miles Calm Calm - N/A   Partly Cloudy
6:56 PM 42.8°F 42.8°F 100% 30.23 in 1.0 miles Calm Calm - N/A   Mist
7:11 PM 39.2°F 39.2°F 100% 30.24 in 0.2 miles Calm Calm - N/A Fog Fog
7:53 PM 37.9°F 37.9°F 100% 30.26 in 0.2 miles Calm Calm - N/A Fog Fog
8:53 PM 39.0°F 39.0°F 100% 30.26 in 0.2 miles Calm Calm - N/A Fog Fog
9:53 PM 37.0°F 37.0°F 100% 30.26 in 0.2 miles Calm Calm - N/A Fog Fog
10:53 PM 35.1°F 35.1°F 100% 30.25 in 0.8 miles Calm Calm - N/A   Mist
11:53 PM 36.0°F 36.0°F 100% 30.25 in 0.5 miles Calm Calm - 0.00 in Fog Fog
Moon Phase
Nov. 05 Nov. 06 Nov. 13 Nov. 20 Nov. 28
Sunrise:06:41 AM (PST) Moon Rise:10:07 PM (PST)11/5
Sunset:04:24 PM (PST) Moon Set:12:04 PM (PST)11/5

Copyright © 2014 The Weather Underground, Inc.